This is the latest recevied weather packets stored in our database for station/object SR9NCI. If no packets are shown the sender has not sent any weather packets the latest 1 day(s).
| Time | Temp. | Humidity | Pressure | Rain* | Wind** | Luminosity | Snow |
|---|---|---|---|---|---|---|---|
| 1778015015 | 20.56° C | - | 0 hPa | - | 3.13 m/s, 151° | - | - |
| 1778014773 | 20.56° C | - | 0 hPa | - | 4.47 m/s, 148° | - | - |
| 1778014531 | 20.56° C | - | 0 hPa | - | 4.92 m/s, 173° | - | - |
| 1778014290 | 20.56° C | - | 0 hPa | - | 4.92 m/s, 178° | - | - |
| 1778014048 | 21.11° C | - | 0 hPa | - | 6.26 m/s, 182° | - | - |
| 1778013800 | 20.56° C | - | 0 hPa | - | 4.92 m/s, 175° | - | - |
| 1778013558 | 21.11° C | - | 0 hPa | - | 4.92 m/s, 186° | - | - |
| 1778013316 | 21.11° C | - | 0 hPa | - | 6.26 m/s, 161° | - | - |
| 1778013075 | 21.11° C | - | 0 hPa | - | 5.36 m/s, 192° | - | - |
| 1778012834 | 21.11° C | - | 0 hPa | - | 5.36 m/s, 193° | - | - |
| 1778012593 | 21.11° C | - | 0 hPa | - | 4.92 m/s, 172° | - | - |
| 1778012350 | 21.11° C | - | 0 hPa | - | 3.58 m/s, 193° | - | - |
| 1778012109 | 21.11° C | - | 0 hPa | - | 4.92 m/s, 181° | - | - |
| 1778011868 | 21.67° C | - | 0 hPa | - | 5.81 m/s, 196° | - | - |
| 1778011626 | 21.11° C | - | 0 hPa | - | 7.15 m/s, 172° | - | - |
| 1778011377 | 21.67° C | - | 0 hPa | - | 5.36 m/s, 196° | - | - |
| 1778011135 | 21.67° C | - | 0 hPa | - | 4.47 m/s, 176° | - | - |
| 1778010894 | 21.67° C | - | 0 hPa | - | 4.02 m/s, 194° | - | - |
| 1778010653 | 21.67° C | - | 0 hPa | - | 4.47 m/s, 173° | - | - |
| 1778010410 | 21.67° C | - | 0 hPa | - | 4.02 m/s, 192° | - | - |
| 1778010169 | 21.67° C | - | 0 hPa | - | 4.92 m/s, 180° | - | - |
| 1778009927 | 21.67° C | - | 0 hPa | - | 4.92 m/s, 163° | - | - |
| 1778009686 | 21.67° C | - | 0 hPa | - | 4.02 m/s, 170° | - | - |
| 1778009445 | 21.67° C | - | 0 hPa | - | 4.02 m/s, 173° | - | - |
| 1778009202 | 21.67° C | - | 0 hPa | - | 2.68 m/s, 164° | - | - |
* Rain since midnight (hover to see other rain measurements)
** Current wind speed in m/s (hover to see current wind gust speed)